Wind_Speed
7 6 5 5 3 2 0 4 8 9 11 11 10 10 9 9 8 9 9 10 9 9 10 10 10 10 10 10 11 11 11 10 10 11 11 12 12 12 11 11 10 11 11 11 11 11 11 11 12
8 7 6 5 4 2 3 8 10 10 12 12 11 11 10 11 9 10 10 10 10 10 10 10 10 11 11 12 11 12 12 11 11 12 12 12 13 13 13 12 12 12 12 12 12 12 12 13 13
8 8 7 6 5 3 6 9 10 12 12 12 12 12 12 12 11 11 11 11 10 11 11 11 11 11 11 12 12 12 13 13 13 14 14 13 14 14 14 14 14 13 13 13 13 13 14 14 14
9 8 6 5 4 4 9 10 9 12 13 13 13 13 12 13 13 12 11 12 11 12 12 12 11 12 12 12 13 13 13 14 14 14 15 15 15 15 15 15 15 15 14 14 14 15 15 15 15
8 8 6 5 5 7 10 10 11 10 13 13 14 14 12 13 14 13 12 13 12 12 12 12 12 13 13 13 13 13 14 14 14 15 16 17 17 16 16 16 16 16 16 15 16 16 16 16 16
8 8 6 5 6 9 13 12 11 12 11 12 14 15 13 13 13 14 13 13 13 13 13 13 13 13 13 13 13 14 15 15 15 16 17 17 18 17 17 17 17 17 17 17 17 17 17 17 17
9 8 6 5 6 9 14 13 12 13 12 12 13 15 14 14 14 14 15 15 15 14 14 15 14 14 15 15 15 15 16 17 16 17 17 18 18 18 18 18 18 19 19 19 18 19 18 19 18
9 8 7 5 7 10 14 14 14 14 14 12 13 14 14 14 14 15 15 15 15 15 15 15 15 15 16 16 16 17 18 18 17 18 18 19 19 19 19 19 19 19 19 20 20 20 20 20 20
9 7 5 4 7 12 13 13 14 15 15 15 16 16 17 17 16 15 16 16 16 16 16 16 16 16 16 16 17 17 18 18 18 19 19 20 20 21 20 20 20 20 21 21 21 21 21 21 21
8 6 5 7 11 14 13 13 14 14 15 15 17 17 18 18 17 16 16 16 17 17 17 17 17 17 16 17 17 18 18 18 19 20 20 21 21 21 21 21 21 22 22 22 22 22 22 23 22
6 7 6 10 13 14 13 14 14 14 15 15 16 18 17 18 17 17 17 17 18 18 17 18 18 17 17 18 18 19 20 20 20 20 20 21 21 21 22 22 23 22 23 24 24 24 24 24 24
7 8 9 12 13 14 13 15 15 15 16 16 16 17 19 20 19 19 18 18 18 18 19 19 18 18 18 17 18 19 20 20 20 20 20 21 21 21 23 23 24 25 24 24 25 25 25 25 25
9 10 12 13 12 13 14 15 15 16 17 17 17 18 20 19 20 20 19 20 19 19 19 20 19 19 19 19 19 19 20 19 20 20 21 21 21 22 23 24 25 25 25 26 26 26 26 26 25
7 9 9 9 12 13 14 15 15 15 17 18 18 19 20 20 19 19 20 20 21 21 21 21 19 19 19 20 20 21 21 21 21 22 22 22 23 23 24 24 25 25 26 26 26 25 26 25 25
5 7 7 9 12 13 13 15 14 15 18 19 19 19 20 21 20 20 20 20 20 21 21 21 20 20 20 20 21 22 22 22 22 22 22 23 23 24 24 25 25 25 25 25 26 26 25 25 25
5 6 8 10 13 15 16 16 16 16 19 19 19 19 19 20 20 20 19 18 19 20 20 20 21 20 20 21 22 22 22 23 22 22 23 23 24 25 25 25 26 26 26 26 26 26 26 26 25
7 8 10 11 13 15 17 18 18 17 17 19 20 19 19 19 19 20 20 19 19 19 19 19 20 21 21 21 22 23 22 22 22 23 23 24 25 26 26 26 26 26 26 26 27 26 26 26 25
10 11 12 12 13 16 18 19 19 19 17 18 20 20 20 20 20 20 20 21 20 19 19 19 20 21 22 22 22 22 21 22 23 23 24 25 25 26 26 26 26 26 26 26 26 25 25 25 25
11 13 13 13 15 18 19 20 19 20 18 17 19 21 22 21 21 21 21 21 21 20 20 20 21 22 22 22 21 21 22 23 23 24 25 26 26 26 26 26 26 26 26 26 26 25 25 25 25
12 13 13 15 17 19 20 19 20 19 20 20 20 22 22 22 22 23 22 22 22 21 21 21 21 21 21 22 22 23 23 23 24 25 26 26 26 27 27 26 26 26 26 26 25 26 26 26 25
14 15 15 16 17 18 19 20 20 20 21 21 21 21 23 22 23 24 24 23 22 21 20 20 20 20 21 21 23 24 24 24 24 25 26 26 26 26 27 28 27 27 27 26 25 25 25 25 25
15 16 17 17 17 17 17 20 21 22 21 21 21 22 23 23 23 24 23 22 22 21 20 20 20 20 21 21 23 24 25 25 25 26 26 26 26 27 27 27 27 27 27 27 26 25 25 26 25
16 17 18 17 17 18 17 20 21 22 21 21 23 23 24 24 23 23 23 22 21 21 21 21 21 21 21 22 23 24 25 25 26 25 25 25 26 26 25 26 27 27 27 27 26 26 25 25 25
17 17 17 16 17 19 19 20 21 22 21 22 24 23 24 24 23 23 22 22 22 21 21 21 21 22 22 23 24 25 25 25 26 26 25 26 26 26 25 25 25 26 26 25 25 25 25 24 24
17 17 18 17 16 18 18 19 20 22 23 22 25 25 25 25 24 22 22 22 22 22 21 22 22 23 23 23 24 25 25 25 25 25 26 26 25 25 24 24 24 25 26 26 26 25 24 24 24
18 18 19 20 20 20 19 20 20 20 24 23 23 24 23 23 23 23 23 22 22 22 22 22 22 22 23 24 24 23 24 24 25 25 26 26 26 25 23 24 24 24 25 25 25 25 24 24 24
20 20 19 22 21 21 20 20 19 22 24 23 22 22 22 23 24 24 24 22 21 21 22 22 22 21 22 22 22 23 24 24 24 24 25 24 24 23 23 23 23 23 24 24 24 24 24 24 24
19 20 22 21 21 21 19 19 19 23 25 24 22 22 22 23 24 25 24 21 21 21 21 22 21 21 21 22 22 22 23 23 23 23 22 22 22 23 23 23 24 23 23 23 24 24 23 24 25
19 20 20 22 22 21 20 19 20 23 24 24 24 22 21 22 24 24 22 21 20 21 20 21 21 21 21 21 21 21 22 22 22 21 20 21 22 23 23 23 23 23 23 23 23 24 24 24 25
20 20 20 22 22 22 23 23 22 22 22 23 24 22 21 21 23 23 21 21 21 20 20 20 19 19 20 21 21 20 21 21 20 19 20 21 21 22 22 22 22 23 23 24 24 24 24 24 24
Wind_Direction
207 204 201 199 179 152 186 282 277 274 277 282 277 269 270 275 285 287 283 285 289 290 291 294 297 295 294 290 287 290 289 286 287 289 288 286 286 286 286 286 288 287 287 288 288 285 282 281 279
211 208 208 204 183 166 275 275 271 273 276 280 280 278 274 276 286 286 286 287 290 290 291 293 294 293 292 289 285 286 287 285 286 290 288 287 288 288 286 286 286 287 287 287 288 285 281 280 280
202 206 208 206 202 197 244 263 278 282 280 281 281 280 277 277 284 283 285 288 289 290 290 292 292 290 289 286 284 284 286 286 286 288 288 288 287 287 287 287 287 288 287 288 288 286 283 282 280
207 207 210 221 218 234 252 257 262 279 282 283 284 284 285 283 281 287 288 290 291 293 293 291 290 288 288 285 285 285 284 286 287 287 286 284 285 285 287 287 288 287 287 288 288 287 285 282 281
207 207 205 228 244 254 265 265 277 281 286 287 283 285 287 286 284 289 291 296 294 294 295 293 291 290 289 286 284 285 286 287 287 286 287 285 285 286 285 286 287 288 288 288 289 289 287 284 283
203 205 205 227 237 260 266 270 279 281 282 285 286 285 287 283 285 291 292 296 296 292 293 294 293 292 289 290 290 289 289 289 290 288 289 289 287 287 285 286 288 289 288 288 288 289 285 284 283
195 205 204 225 246 262 266 273 278 276 274 279 286 287 285 282 287 294 297 295 297 292 290 292 295 292 291 291 291 291 290 289 289 289 291 291 289 287 287 287 289 290 290 289 288 289 286 285 284
194 211 215 227 247 262 267 273 280 275 272 279 283 283 284 283 286 295 298 296 294 294 290 290 293 293 292 292 292 291 291 289 290 289 292 291 289 288 287 288 290 291 290 290 290 289 286 286 285
200 212 216 246 257 260 264 270 271 274 277 282 283 286 284 290 289 291 293 294 297 296 295 294 294 293 290 290 292 293 292 291 291 293 293 292 291 288 288 288 290 291 291 291 290 288 286 286 285
203 213 226 247 247 252 254 263 268 271 278 281 284 286 288 288 287 288 289 290 293 294 294 296 296 295 292 291 291 293 293 293 294 294 295 294 293 291 290 289 291 292 292 292 291 289 288 288 286
207 225 234 243 247 251 259 265 268 271 276 280 281 284 284 289 289 288 287 288 291 293 294 295 295 295 295 294 294 293 294 294 295 295 295 296 295 296 295 293 293 294 293 293 292 290 289 287 286
224 241 248 247 250 253 265 269 272 272 274 276 280 281 285 287 288 289 287 288 291 292 293 294 294 294 296 295 294 293 294 295 297 299 299 299 298 298 297 297 295 295 294 295 293 291 290 287 286
241 251 251 255 259 261 270 275 277 277 276 277 281 282 285 286 286 287 289 288 289 288 289 290 291 292 293 292 293 295 296 297 299 300 302 301 299 299 299 299 299 298 297 297 294 292 291 289 286
243 261 263 260 267 273 275 278 278 278 277 278 281 283 284 286 288 289 286 287 288 287 288 288 288 289 290 291 293 295 296 296 298 301 302 302 304 302 299 299 301 300 298 298 295 294 292 291 289
275 282 286 283 281 280 276 279 282 277 276 280 281 281 286 290 291 288 286 286 287 289 288 286 286 288 291 292 293 296 296 297 300 303 302 302 302 302 303 303 302 300 299 299 298 295 294 293 291
317 313 304 294 283 283 282 279 278 278 280 281 282 284 287 290 290 288 287 286 285 286 285 283 284 287 289 292 294 295 297 298 299 301 301 301 301 301 302 303 301 300 299 298 297 295 294 294 293
317 297 287 278 279 282 283 279 276 274 276 280 282 286 291 292 291 290 290 289 288 285 284 284 283 285 287 290 294 295 296 298 299 300 301 302 302 301 301 301 301 301 300 299 299 297 296 296 296
289 287 287 286 283 282 286 284 282 282 279 279 283 286 289 291 291 290 292 292 289 288 286 287 286 286 289 291 294 295 295 298 299 302 303 304 303 301 300 301 301 301 301 300 301 301 299 297 296
292 295 296 292 290 287 289 290 288 288 285 281 283 286 288 290 290 290 292 291 288 289 288 287 285 286 289 290 292 295 296 296 299 302 303 302 302 301 300 300 300 301 302 302 302 301 300 298 296
294 292 293 289 285 285 287 288 287 290 288 281 280 285 289 289 289 290 291 292 290 289 288 287 288 287 289 290 291 296 297 298 300 301 302 301 301 302 302 301 301 301 301 301 301 300 299 298 297
290 291 290 287 286 286 288 291 288 286 283 282 283 289 292 291 289 290 290 290 291 290 289 289 290 290 291 291 293 296 297 300 301 302 303 303 302 301 300 298 299 300 300 300 299 298 298 298 298
295 294 289 289 289 291 287 284 284 281 281 288 284 285 287 288 288 289 289 288 290 289 287 287 290 293 295 296 295 297 299 300 301 303 303 304 303 302 298 298 299 301 300 300 300 300 299 298 297
294 295 294 296 295 293 288 278 279 283 279 282 284 281 284 289 289 290 289 286 286 287 288 287 289 292 294 297 297 299 301 302 302 304 303 303 303 302 299 299 301 301 300 301 302 302 301 299 298
298 298 298 296 291 285 286 280 277 278 279 279 282 286 291 291 290 289 289 288 285 285 286 286 289 291 293 296 299 300 301 302 303 304 305 305 303 301 300 301 302 301 301 301 302 302 301 299 299
298 298 297 292 286 286 288 283 279 281 283 282 284 292 295 292 287 286 287 288 286 283 285 284 287 290 293 295 298 300 301 302 304 305 304 304 302 302 303 301 302 303 302 301 302 301 300 300 300
297 296 296 294 291 290 286 278 280 283 282 286 289 293 292 291 288 287 285 286 286 285 286 288 287 289 292 293 296 300 302 302 304 306 306 306 304 304 303 303 304 306 304 303 301 300 299 300 301
292 291 288 284 286 288 285 280 282 286 287 289 290 292 292 291 290 288 288 287 284 284 287 290 288 290 294 296 298 300 301 303 304 306 307 308 308 307 308 307 307 307 307 305 303 300 300 301 301
291 290 288 286 286 284 283 279 282 286 286 282 288 293 289 288 289 290 288 284 284 286 288 290 291 292 293 295 297 300 303 306 306 307 306 307 309 308 307 308 307 306 308 308 306 305 303 303 302
292 287 284 280 281 285 286 282 284 286 288 290 289 289 287 289 290 290 286 285 286 286 288 291 292 291 294 296 297 300 303 305 306 308 309 310 310 310 308 308 309 310 311 309 310 309 306 305 304
292 289 285 282 280 277 277 279 283 285 287 290 289 290 291 290 290 287 285 286 287 287 288 290 291 294 296 298 300 302 304 305 306 307 309 310 311 311 312 312 312 312 312 312 311 312 309 307 307
Height
5882 5883 5884 5886 5887 5888 5889 5891 5892 5890 5889 5888 5888 5887 5886 5886 5887 5888 5885 5884 5885 5885 5884 5884 5883 5882 5882 5881 5880 5880 5879 5878 5878 5877 5877 5876 5876 5875 5874 5873 5873 5872 5871 5870 5870 5869 5868 5868 5868
5880 5882 5883 5884 5886 5887 5890 5891 5890 5888 5888 5887 5886 5886 5886 5885 5885 5885 5884 5884 5884 5883 5883 5882 5882 5881 5880 5880 5879 5878 5877 5876 5876 5875 5875 5874 5874 5873 5872 5871 5870 5870 5869 5868 5867 5867 5866 5865 5865
5878 5880 5882 5883 5885 5886 5889 5890 5889 5887 5886 5886 5885 5885 5885 5884 5884 5883 5883 5883 5883 5882 5881 5881 5880 5879 5879 5878 5877 5876 5875 5874 5874 5873 5873 5872 5871 5870 5870 5869 5868 5867 5866 5865 5865 5864 5863 5862 5862
5876 5878 5880 5883 5884 5886 5887 5888 5887 5886 5885 5885 5884 5884 5883 5883 5882 5881 5881 5881 5881 5880 5879 5879 5878 5877 5876 5875 5874 5873 5872 5872 5871 5871 5870 5869 5868 5867 5867 5866 5865 5864 5863 5862 5862 5861 5860 5859 5859
5874 5877 5880 5882 5884 5885 5886 5885 5885 5885 5884 5883 5883 5882 5881 5881 5880 5880 5880 5879 5879 5878 5878 5876 5876 5875 5874 5872 5872 5871 5870 5869 5869 5868 5867 5866 5865 5864 5864 5863 5862 5861 5860 5859 5858 5858 5857 5856 5855
5873 5876 5879 5881 5884 5886 5886 5884 5883 5883 5883 5881 5880 5880 5879 5879 5878 5879 5878 5877 5877 5876 5876 5874 5873 5873 5871 5870 5869 5869 5868 5867 5866 5865 5865 5864 5863 5861 5860 5860 5859 5858 5857 5856 5855 5854 5853 5853 5852
5873 5875 5877 5880 5883 5885 5884 5881 5881 5881 5880 5880 5879 5878 5876 5875 5876 5876 5876 5875 5874 5874 5873 5872 5871 5870 5869 5868 5867 5866 5865 5865 5864 5862 5862 5860 5859 5858 5857 5856 5855 5854 5853 5852 5851 5850 5850 5849 5848
5870 5873 5875 5878 5881 5883 5882 5881 5879 5879 5878 5878 5877 5875 5874 5873 5873 5873 5873 5873 5872 5871 5871 5869 5869 5868 5866 5865 5864 5863 5863 5862 5861 5859 5858 5857 5856 5855 5854 5853 5852 5850 5849 5848 5847 5846 5846 5845 5844
5869 5872 5874 5877 5879 5880 5879 5879 5877 5876 5875 5875 5873 5872 5870 5870 5871 5871 5870 5870 5869 5868 5867 5866 5866 5865 5864 5862 5861 5860 5859 5858 5857 5856 5854 5853 5852 5851 5850 5849 5848 5846 5845 5844 5843 5842 5841 5840 5839
5867 5870 5872 5875 5876 5876 5876 5875 5873 5873 5873 5872 5870 5870 5868 5868 5868 5868 5867 5866 5866 5866 5865 5863 5862 5862 5861 5860 5859 5858 5857 5855 5854 5852 5850 5849 5848 5847 5845 5844 5843 5842 5841 5839 5838 5837 5836 5835 5835
5866 5868 5869 5871 5872 5872 5872 5872 5871 5871 5870 5869 5868 5867 5865 5864 5864 5864 5864 5863 5863 5862 5862 5861 5860 5859 5858 5857 5856 5854 5853 5852 5850 5848 5847 5845 5844 5842 5841 5840 5839 5837 5836 5835 5833 5832 5831 5830 5829
5865 5866 5867 5868 5868 5869 5869 5869 5868 5868 5867 5866 5865 5864 5862 5861 5861 5861 5860 5860 5859 5859 5858 5857 5856 5856 5855 5854 5852 5851 5849 5848 5846 5844 5843 5841 5839 5838 5837 5836 5834 5832 5831 5829 5828 5826 5825 5824 5823
5864 5865 5865 5865 5865 5866 5866 5866 5865 5865 5864 5862 5862 5861 5860 5859 5858 5858 5857 5856 5855 5855 5854 5851 5852 5852 5851 5850 5849 5847 5846 5844 5843 5841 5839 5838 5836 5835 5833 5831 5829 5828 5826 5824 5822 5821 5820 5819 5818
5862 5863 5863 5863 5863 5863 5863 5863 5863 5862 5860 5860 5859 5858 5857 5856 5855 5854 5853 5852 5851 5851 5850 5847 5846 5847 5848 5846 5845 5844 5842 5841 5840 5838 5836 5834 5832 5830 5828 5826 5824 5822 5821 5819 5817 5816 5815 5813 5812
5861 5862 5862 5862 5861 5861 5861 5861 5860 5859 5857 5856 5856 5855 5854 5852 5851 5851 5849 5848 5848 5846 5846 5845 5843 5843 5844 5843 5841 5840 5839 5837 5836 5834 5832 5830 5828 5826 5824 5822 5819 5817 5815 5814 5812 5811 5809 5807 5806
5860 5861 5862 5862 5861 5860 5860 5858 5857 5855 5854 5853 5852 5851 5851 5850 5848 5847 5844 5843 5843 5843 5842 5841 5840 5839 5839 5839 5837 5836 5835 5833 5832 5830 5828 5826 5824 5822 5819 5817 5814 5812 5810 5808 5807 5805 5803 5801 5800
5860 5861 5862 5862 5860 5858 5857 5855 5853 5850 5850 5849 5848 5847 5847 5846 5844 5843 5842 5840 5839 5838 5837 5837 5836 5835 5834 5834 5833 5832 5831 5829 5828 5826 5824 5821 5819 5817 5815 5812 5809 5807 5805 5803 5801 5799 5798 5796 5794
5860 5860 5859 5859 5857 5855 5854 5851 5849 5848 5846 5846 5845 5844 5844 5843 5841 5840 5838 5837 5835 5834 5834 5833 5833 5831 5830 5829 5828 5827 5827 5825 5823 5821 5819 5817 5815 5812 5809 5807 5805 5802 5800 5798 5796 5794 5792 5790 5788
5858 5857 5857 5856 5855 5853 5851 5848 5847 5845 5843 5842 5842 5840 5840 5839 5837 5835 5834 5833 5832 5831 5830 5829 5828 5827 5826 5825 5824 5823 5822 5821 5819 5817 5814 5812 5810 5807 5804 5802 5800 5798 5795 5793 5791 5789 5786 5784 5783
5855 5855 5855 5854 5852 5850 5847 5845 5843 5841 5839 5838 5837 5836 5836 5834 5833 5831 5830 5829 5828 5827 5826 5825 5824 5823 5822 5821 5820 5818 5817 5816 5814 5812 5810 5807 5804 5802 5799 5797 5795 5792 5790 5788 5785 5783 5781 5779 5777
5853 5852 5851 5849 5847 5846 5844 5842 5841 5838 5835 5834 5833 5832 5832 5831 5829 5828 5826 5825 5824 5823 5822 5821 5820 5819 5818 5817 5816 5814 5813 5811 5809 5807 5805 5802 5799 5796 5794 5792 5789 5787 5785 5782 5780 5778 5776 5774 5772
5850 5849 5847 5844 5843 5842 5842 5839 5836 5833 5831 5830 5829 5828 5827 5826 5825 5823 5822 5821 5820 5819 5817 5816 5816 5815 5814 5813 5811 5810 5808 5806 5804 5801 5799 5796 5793 5789 5787 5786 5783 5781 5779 5777 5775 5772 5770 5768 5766
5846 5844 5842 5840 5839 5837 5837 5834 5832 5829 5827 5826 5824 5822 5822 5821 5820 5819 5817 5816 5815 5814 5813 5812 5811 5811 5810 5808 5806 5805 5803 5801 5799 5796 5794 5790 5787 5784 5781 5780 5777 5775 5773 5771 5769 5767 5765 5763 5761
5841 5840 5838 5836 5836 5835 5833 5830 5827 5825 5822 5821 5819 5817 5818 5816 5816 5815 5813 5812 5811 5810 5809 5807 5806 5806 5805 5803 5802 5800 5798 5796 5793 5791 5789 5785 5782 5779 5776 5774 5772 5770 5768 5765 5763 5761 5759 5757 5755
5838 5836 5834 5833 5831 5830 5829 5826 5824 5821 5818 5815 5814 5813 5813 5811 5811 5810 5809 5807 5806 5805 5804 5803 5802 5801 5800 5798 5797 5795 5793 5790 5788 5786 5783 5780 5777 5774 5771 5769 5767 5764 5762 5760 5758 5756 5754 5751 5749
5834 5832 5831 5828 5826 5824 5823 5821 5820 5816 5814 5811 5809 5809 5808 5806 5805 5804 5803 5802 5801 5800 5799 5798 5797 5796 5795 5793 5792 5790 5788 5785 5783 5781 5778 5775 5772 5769 5767 5764 5762 5759 5757 5755 5753 5751 5748 5746 5744
5828 5827 5826 5823 5820 5819 5818 5817 5815 5813 5810 5808 5806 5805 5804 5802 5801 5799 5798 5797 5796 5795 5794 5793 5792 5790 5789 5788 5787 5785 5783 5781 5778 5776 5773 5770 5767 5765 5762 5759 5757 5754 5752 5749 5747 5745 5743 5741 5738
5823 5821 5819 5816 5814 5813 5813 5811 5810 5808 5805 5802 5800 5800 5799 5798 5796 5795 5793 5791 5789 5790 5789 5788 5787 5786 5785 5783 5782 5780 5778 5776 5773 5771 5768 5766 5763 5760 5758 5756 5753 5750 5747 5745 5742 5740 5738 5735 5732
5818 5816 5813 5811 5809 5808 5806 5808 5805 5803 5800 5797 5796 5795 5794 5793 5791 5789 5787 5786 5786 5785 5784 5783 5782 5781 5779 5778 5776 5775 5773 5770 5768 5766 5763 5761 5759 5756 5754 5752 5749 5746 5743 5740 5738 5735 5733 5730 5727
5811 5809 5808 5806 5803 5803 5801 5803 5799 5797 5794 5791 5790 5789 5788 5787 5786 5783 5782 5781 5781 5781 5780 5779 5777 5776 5774 5773 5772 5770 5768 5766 5764 5762 5759 5757 5754 5752 5750 5747 5744 5741 5738 5736 5733 5730 5727 5724 5721